Location: Newark
(52.2583°N, 7.1190°W)
Time: 20:23:02
(UTC+00:00)

N. Korean satellite - Pass Details

Date: 25 October 2019
Orbit: 456 x 506 km, 97.2° (Epoch: 18 November)

Event Time Altitude Azimuth Distance (km) Brightness Sun altitude
Rises 05:46:03 0° 22° (NNE) 2,574 10.5 -13.5°
Reaches altitude 10° 05:48:22 10° 36° (NE) 1,696 9.8 -13.2°
Maximum altitude 05:51:28 26° 94° (E) 1,016 9.2 -12.7°
Drops below altitude 10° 05:54:36 10° 153° (SSE) 1,703 9.8 -12.2°
Sets 05:56:55 0° 166° (SSE) 2,588 10.5 -11.9°
